Location: Cran-Gévrier
(45.9039°N, 6.1012°E)
Time: 10:43:46
(UTC+00:00)

BREEZE-M DEB (TANK) - Pass Details

Date: 09 February 2023
Orbit: 327 x 16573 km, 49.5° (Epoch: 19 March)

Event Time Altitude Azimuth Distance (km) Brightness Sun altitude
Rises 18:05:32 0° 240° (WSW) 10,322 10.1 -13.1°
Reaches altitude 10° 18:15:45 10° 241° (WSW) 6,767 8.9 -14.9°
Maximum altitude 18:30:14 84° 157° (SSE) 1,050 3.6 -17.4°
Enters shadow 18:32:29 31° 71° (ENE) 1,310 3.7 -17.8°
